sat.trackr.live / text

‹ back to catalog

LEO EXPRESS 3

NORAD 66687 · 2025-276X

PAYLOAD ACTIVE UNKNOWN

§ Identity

Operator
Country
US
Launch date
2025-11-28
Launch site
AFWTR
Launch vehicle
Mass (kg)
RCS (m²)

External: N2YO · Heavens-Above · Gunter

§ Orbital elements

Epoch: 2026-05-25T03:36:08.659008Z

Period
94.71 min
Inclination
97.4262°
Eccentricity
0.0005393
Mean motion
15.20463363 rev/d
Perigee alt
500.7 km
Apogee alt
508.2 km
Semi-major
6,882.6 km
B*
4.6242e-4
RAAN
219.1502°
Arg perigee
217.0084°
Mean anomaly
143.0780°
Rev number
2,692

§ Raw data

LEO EXPRESS 31 66687U 25276X   26145.15010022  .00010036  00000+0  46242-3 0  99942 66687  97.4262 219.1502 0005393 217.0084 143.0780 15.20463363 26922

JSON: /api/v1/satellites/66687 · /tle

For live sub-satellite position, see the globe view (requires WebGL).

§ Visibility from observer

Set your observer location to see the next 7 days of passes ≥ 10°. The values pass through the URL so the page stays shareable.

No JS? Fill the form by hand. The geolocation button needs JavaScript.